Voltar ao catálogo

STARLINK-5386

AtivoComunicaçõesVLEO
NORAD 54834·PAYLOAD·🇺🇸 United States

Lançado Dec 28, 2022 de Cape Canaveral Space Force Station

Loading…

Próximas Passagens (próximas 24 horas)

TLE

AtualizadoSource: CelesTrak SupGP

Época: Sep 14, 2026, 22:12 UTC

1 54834C 22177Q   26257.92548611 -.00014721  00000+0 -53328-3 0  2578
2 54834  43.0022 147.7592 0001552 265.8250 316.4026 15.27580274    17

Acompanhe STARLINK-5386 em tempo real com AllMySat

Download on the App Store